Location: Juzet
(42.9779°N, 0.7597°E)
Time: 08:42:23
(UTC+00:00)

Meteor 2-20 Rocket - Pass Details

Date: 14 July 2020
Orbit: 941 x 958 km, 82.5° (Epoch: 05 August)

Event Time Altitude Azimuth Distance (km) Brightness Sun altitude
Rises 00:20:33 0° 350° (N) 3,640 8.7 -25.3°
Reaches altitude 10° 00:23:03 10° 350° (N) 2,692 7.8 -25.2°
Maximum altitude 00:29:13 84° 264° (W) 968 4.4 -25.1°
Enters shadow 00:30:28 60° 184° (S) 1,092 4.4 -25.1°
